Weather History for Mumbai, India

Change the Weather History Date:

Saturday, May 17, 2014

  Actual Average Record
Temperature  
Mean Temperature 86 °F -  
Max Temperature 92 °F 87 °F 95 °F (1997)
Min Temperature 79 °F 78 °F 68 °F (2000)
Cooling Degree Days 20    
Growing Degree Days 36 (Base 50)    
Moisture  
Dew Point 75 °F    
Average Humidity 68    
Maximum Humidity 79    
Minimum Humidity 51    
Precipitation  
Precipitation 0.00 in - - ()
Sea Level Pressure  
Sea Level Pressure 29.81 in    
Wind  
Wind Speed 5 mph ()    
Max Wind Speed 18 mph    
Max Gust Speed 30 mph    
Visibility 2.5 miles    
Events      
Averages and records for this station are not official NWS values.
T = Trace of Precipitation, MM = Missing Value Source: Averaged Metar Reports

Daily Weather History Graph

Daily Weather History Graph

Search for Another Location

Airport:

Trip Planner

Search our weather history database for the weather conditions in past years. The results will help you decide how hot, cold, wet, or windy it might be!

Date:

Astronomy

May. 17, 2014 Rise Set
Actual Time 6:03 AM IST 7:06 PM IST
Civil Twilight 5:39 AM IST 7:30 PM IST
Nautical Twilight 5:12 AM IST 7:58 PM IST
Astronomical Twilight 4:43 AM IST 8:26 PM IST
Moon 9:45 PM IST (5/17) 8:18 AM IST (5/17)
Length of Visible Light 13h 50m
Length of Day
13h 03m
Waning Gibbous, 92% of the Moon is Illuminated
May 17
Waning Gibbous
May 21
Last Quarter
May 29
New
Jun 6
First Quarter
Jun 13
Full

Hourly Weather History & Observations

Time (IST) Temp. Heat Index Dew Point Humidity Pressure Visibility Wind Dir Wind Speed Gust Speed Precip Events Conditions
12:10 AM 84.2 °F 90.9 °F 73.4 °F 70% 29.80 in 2.5 mi WNW 6.9 mph - N/A   Haze
12:40 AM 82.4 °F 88.2 °F 73.4 °F 74% 29.80 in 2.5 mi NNW 5.8 mph - N/A   Haze
1:10 AM 84.2 °F 90.9 °F 73.4 °F 70% 29.80 in 2.5 mi NNW 3.5 mph - N/A   Haze
1:40 AM 84.2 °F 90.9 °F 73.4 °F 70% 29.80 in 2.5 mi North 3.5 mph - N/A   Haze
2:10 AM 84.2 °F 90.9 °F 73.4 °F 70% 29.77 in 2.5 mi North 3.5 mph - N/A   Haze
2:30 AM 82 °F - 75 °F 75% 29.78 in 1 mi Calm Calm - -   Haze
2:40 AM 84.2 °F 90.9 °F 73.4 °F 70% 29.77 in 2.5 mi Calm Calm - N/A   Haze
3:10 AM 84.2 °F 90.9 °F 73.4 °F 70% 29.77 in 2.5 mi Calm Calm - N/A   Haze
3:40 AM 84.2 °F 90.9 °F 73.4 °F 70% 29.77 in 2.5 mi Calm Calm - N/A   Haze
4:10 AM 84.2 °F 90.9 °F 73.4 °F 70% 29.80 in 2.5 mi Calm Calm - N/A   Haze
4:40 AM 82.4 °F 88.2 °F 73.4 °F 74% 29.80 in 2.5 mi Calm Calm - N/A   Haze
5:10 AM 82.4 °F 88.2 °F 73.4 °F 74% 29.80 in 2.5 mi Calm Calm - N/A   Haze
5:30 AM 81 °F - 75 °F 78% 29.79 in 1 mi Calm Calm - -   Haze
5:40 AM 82.4 °F 88.2 °F 73.4 °F 74% 29.80 in 2.5 mi Calm Calm - N/A   Haze
6:10 AM 82.4 °F 88.2 °F 73.4 °F 74% 29.80 in 2.2 mi Calm Calm - N/A   Haze
7:10 AM 84.2 °F 92.3 °F 75.2 °F 74% 29.83 in 1.9 mi Calm Calm - N/A   Haze
7:40 AM 86.0 °F 95.1 °F 75.2 °F 70% 29.83 in 1.9 mi Calm Calm - N/A   Haze
8:10 AM 86.0 °F 93.4 °F 73.4 °F 66% 29.86 in 1.9 mi NNE 3.5 mph - N/A   Haze
8:30 AM 87 °F - 76 °F 62% 29.85 in 1 mi Calm Calm - -   Smoke
8:40 AM 86.0 °F 93.4 °F 73.4 °F 66% 29.86 in 1.9 mi NW 3.5 mph - N/A   Haze
9:10 AM 86.0 °F 91.8 °F 71.6 °F 62% 29.86 in 2.5 mi NNW 5.8 mph - N/A   Haze
9:40 AM 87.8 °F 95.6 °F 73.4 °F 62% 29.86 in 2.5 mi WNW 5.8 mph - N/A   Haze
10:10 AM 87.8 °F 95.6 °F 73.4 °F 62% 29.86 in 2.5 mi West 8.1 mph - N/A   Haze
10:40 AM 87.8 °F 95.6 °F 73.4 °F 62% 29.86 in 2.5 mi West 10.4 mph - N/A   Haze
11:10 AM 89.6 °F 99.8 °F 75.2 °F 62% 29.86 in 2.5 mi West 11.5 mph - N/A   Haze
11:30 AM 91 °F - 76 °F 53% 29.85 in 2 mi West 6.9 mph - -   Mostly Cloudy
12:10 PM 89.6 °F 99.8 °F 75.2 °F 62% 29.86 in 3.1 mi West 8.1 mph 19.6 mph N/A   Haze
12:40 PM 89.6 °F 98.2 °F 73.4 °F 59% 29.83 in 3.1 mi West 18.4 mph 29.9 mph N/A   Haze
1:10 PM 89.6 °F 99.8 °F 75.2 °F 62% 29.83 in 3.1 mi WNW 11.5 mph 23.0 mph N/A   Haze
1:40 PM 89.6 °F 99.8 °F 75.2 °F 62% 29.83 in 3.1 mi West 10.4 mph 21.9 mph N/A   Haze
2:10 PM 89.6 °F 98.2 °F 73.4 °F 59% 29.80 in 3.1 mi West 10.4 mph 21.9 mph N/A   Haze
2:30 PM 92 °F - 76 °F 51% 29.82 in 6 mi NW 5.8 mph - -   Mostly Cloudy
2:40 PM 89.6 °F 99.8 °F 75.2 °F 62% 29.80 in 3.1 mi WNW 9.2 mph 20.7 mph N/A   Haze
3:10 PM 89.6 °F 99.8 °F 75.2 °F 62% 29.80 in 3.1 mi WNW 8.1 mph 19.6 mph N/A   Haze
3:40 PM 89.6 °F 99.8 °F 75.2 °F 62% 29.80 in 3.7 mi WNW 11.5 mph 23.0 mph N/A   Scattered Clouds
4:10 PM 87.8 °F 97.6 °F 75.2 °F 66% 29.77 in 3.7 mi WNW 8.1 mph 19.6 mph N/A   Scattered Clouds
4:40 PM 87.8 °F 97.6 °F 75.2 °F 66% 29.77 in 3.7 mi WNW 11.5 mph 23.0 mph N/A   Scattered Clouds
5:10 PM 87.8 °F 97.6 °F 75.2 °F 66% 29.77 in 3.7 mi NW 10.4 mph 21.9 mph N/A   Scattered Clouds
5:30 PM 89 °F - 76 °F 58% 29.76 in 2 mi NNW 5.8 mph - -   Mostly Cloudy
5:40 PM 87.8 °F 97.6 °F 75.2 °F 66% 29.77 in 3.7 mi WNW 12.7 mph - N/A   Scattered Clouds
6:40 PM 89.6 °F 99.8 °F 75.2 °F 62% 29.80 in 2.5 mi NW 9.2 mph - N/A   Haze
7:10 PM 86.0 °F 95.1 °F 75.2 °F 70% 29.80 in 2.2 mi NW 8.1 mph - N/A   Haze
8:30 PM 86 °F - 76 °F 65% 29.80 in 1 mi NNW 4.6 mph - -   Smoke
8:40 PM 86.0 °F 95.1 °F 75.2 °F 70% 29.80 in 2.2 mi NW 9.2 mph - N/A   Haze
9:10 PM 84.2 °F 92.3 °F 75.2 °F 74% 29.80 in 2.2 mi NW 6.9 mph - N/A   Haze
9:40 PM 84.2 °F 94.1 °F 77.0 °F 79% 29.80 in 2.2 mi NW 4.6 mph - N/A   Haze
10:10 PM 84.2 °F 94.1 °F 77.0 °F 79% 29.83 in 2.2 mi NW 8.1 mph - N/A   Haze
10:40 PM 84.2 °F 94.1 °F 77.0 °F 79% 29.83 in 2.2 mi NNW 4.6 mph - N/A   Haze
11:10 PM 84.2 °F 92.3 °F 75.2 °F 74% 29.83 in 2.2 mi NW 8.1 mph - N/A   Haze
11:40 PM 84.2 °F 94.1 °F 77.0 °F 79% 29.83 in 2.2 mi WNW 6.9 mph - N/A   Haze